Back to catalog

STARLINK-38099

AliveCommunicationsSSO
NORAD 69987·PAYLOAD·🇺🇸 United States

Launched Jul 11, 2026 from Vandenberg Space Force Base

Loading…

Next Passes (next 24 hours)

TLE

FreshSource: CelesTrak SupGP

Epoch: Sep 14, 2026, 16:18 UTC

1 69987C 26159N   26257.67965278 -.02689500  00000+0 -41495-1 0  2576
2 69987  97.2848  99.3953 0001484  88.0071 250.6928 15.55547150    19

Track STARLINK-38099 in real time with AllMySat

Download on the App Store